Back to catalog

FENGYUN 1C DEB

AliveSSO
NORAD 31476·DEBRIS·🇨🇳 China

Launched May 10, 1999 from Taiyuan Satellite Launch Center

Loading…

Next Passes (next 24 hours)

TLE

FreshSource: Space-Track

Epoch: Sep 13, 2026, 11:00 UTC

1 31476U 99025BVQ 26256.45868048  .00001688  00000-0  75163-3 0  9998
2 31476  98.8839 337.4790 0051903 101.9343 258.7661 14.23501531996060

Track FENGYUN 1C DEB in real time with AllMySat

Download on the App Store